EW2996 Weather Reports


time (UTC)temp
C
wind
direction
speed
KPH
gust
KPH
rain 1hr
cm
rain 24hr
cm
rain mn
cm
humidity
%
barometer
mb
20260510203028 16 149 1.6 9.7 0.03 0.25 0.03 78 1014.0
20260510202527 17 188 1.6 14.5 0.03 0.25 0.03 74 1014.0
20260510202028 17 188 4.8 14.5 0.03 0.25 0.03 70 1014.0
20260510201527 17 162 4.8 14.5 0.00 0.23 0.00 68 1014.0
20260510201026 17 172 4.8 12.9 0.00 0.23 0.00 65 1013.9
20260510200526 18 183 3.2 12.9 0.00 0.23 0.00 63 1013.6
20260510200027 18 159 6.4 12.9 0.00 0.23 0.00 60 1013.5
20260510195526 18 130 4.8 14.5 0.00 0.48 0.00 59 1013.5
20260510195025 18 184 6.4 14.5 0.00 0.48 0.00 60 1013.7
20260510194525 18 188 4.8 9.7 0.00 0.48 0.00 61 1013.5
20260510194025 18 146 3.2 12.9 0.00 0.48 0.00 59 1013.4
20260510193525 18 192 6.4 12.9 0.00 0.48 0.00 58 1013.6
20260510193031 18 126 6.4 12.9 0.00 0.48 0.00 59 1013.5
20260510192524 18 178 4.8 17.7 0.00 0.48 0.00 57 1013.5
20260510192024 19 141 4.8 19.3 0.00 0.48 0.00 58 1013.6
20260510191534 19 190 6.4 24.1 0.00 0.48 0.00 56 1013.5
20260510191024 19 182 6.4 24.1 0.00 0.48 0.00 57 1013.5
20260510190521 19 144 6.4 24.1 0.00 0.48 0.00 61 1013.7
20260510190031 18 107 4.8 12.9 0.00 0.48 0.00 61 1013.7
20260510185521 18 161 4.8 17.7 0.00 0.53 0.00 61 1013.6
20260510185021 18 176 6.4 17.7 0.00 0.53 0.00 60 1013.7
20260510184520 18 175 6.4 16.1 0.00 0.53 0.00 61 1013.7
20260510184020 18 149 4.8 17.7 0.00 0.53 0.00 62 1013.7
20260510183520 18 189 3.2 14.5 0.00 0.53 0.00 64 1013.7
20260510183020 18 180 6.4 14.5 0.00 0.53 0.00 62 1013.9
20260510182521 18 169 4.8 16.1 0.00 0.53 0.00 62 1013.9
20260510182019 19 123 8.0 16.1 0.00 0.53 0.00 62 1014.0
20260510181519 18 144 4.8 12.9 0.00 0.53 0.00 63 1013.9
20260510181018 18 147 4.8 14.5 0.00 0.53 0.00 63 1013.8
20260510180517 18 218 4.8 16.1 0.00 0.53 0.00 66 1013.7
20260510180015 18 108 6.4 14.5 0.00 0.53 0.00 65 1013.6
20260510175519 18 129 4.8 11.3 0.00 0.53 0.00 66 1013.7
20260510175015 18 150 4.8 9.7 0.00 0.53 0.00 66 1013.8
20260510174515 18 142 3.2 12.9 0.00 0.53 0.00 67 1013.9
20260510174015 18 119 4.8 14.5 0.00 0.53 0.00 67 1013.8
20260510173518 18 138 4.8 14.5 0.00 0.53 0.00 66 1013.6
20260510173014 18 154 4.8 12.9 0.00 0.53 0.00 65 1013.7
20260510172514 18 195 3.2 14.5 0.00 0.53 0.00 65 1013.6
20260510172013 18 161 3.2 14.5 0.00 0.53 0.00 65 1013.7
20260510171523 18 157 3.2 16.1 0.00 0.53 0.00 69 1013.8
20260510171014 18 186 6.4 16.1 0.00 0.53 0.00 67 1013.8
20260510170513 18 176 4.8 12.9 0.00 0.53 0.00 67 1013.8
20260510170013 18 129 3.2 11.3 0.00 0.53 0.00 67 1013.9
20260510165513 18 175 4.8 11.3 0.00 0.56 0.00 66 1013.9
20260510165013 18 198 4.8 8.0 0.00 0.56 0.00 66 1013.8
20260510164511 18 175 1.6 9.7 0.00 0.56 0.00 69 1013.8
20260510164012 18 190 1.6 16.1 0.00 0.56 0.00 65 1013.8
20260510163511 18 169 4.8 16.1 0.00 0.56 0.00 67 1014.0
20260510163010 18 180 3.2 12.9 0.00 0.56 0.00 69 1014.0
20260510162510 18 128 4.8 11.3 0.00 0.56 0.00 67 1014.1
20260510162015 18 166 4.8 11.3 0.00 0.56 0.00 68 1014.1
20260510161508 18 134 3.2 11.3 0.00 0.56 0.00 68 1014.0
20260510161008 18 178 3.2 11.3 0.00 0.56 0.00 69 1014.1
20260510160507 18 196 3.2 14.5 0.00 0.56 0.00 69 1014.0
20260510160011 18 168 6.4 19.3 0.00 0.56 0.00 69 1014.0
20260510155505 17 182 6.4 19.3 0.00 0.56 0.00 71 1014.1
20260510155005 17 168 6.4 12.9 0.00 0.56 0.00 71 1014.1
20260510154504 17 132 4.8 14.5 0.00 0.56 0.00 71 1014.2
20260510154004 17 157 4.8 14.5 0.00 0.56 0.00 72 1014.2
20260510153503 17 173 4.8 12.9 0.00 0.56 0.00 72 1014.2
20260510153004 17 171 4.8 12.9 0.00 0.56 0.00 73 1014.2
20260510152503 17 193 3.2 12.9 0.00 0.56 0.00 75 1014.3
20260510152006 17 202 6.4 12.9 0.00 0.56 0.00 73 1014.3
20260510151502 17 134 3.2 8.0 0.00 0.56 0.00 75 1014.3
20260510151002 17 177 3.2 8.0 0.00 0.56 0.00 75 1014.2
20260510150601 17 105 3.2 8.0 0.00 0.56 0.00 78 1014.2
20260510150059 17 45 1.6 11.3 0.00 0.56 0.00 76 1014.1
20260510145558 17 130 0.0 6.4 0.00 0.56 0.00 79 1014.2
20260510145059 17 87 1.6 6.4 0.00 0.56 0.00 79 1014.2
20260510144606 17 112 1.6 4.8 0.00 0.56 0.00 81 1014.1
20260510144055 17 112 0.0 6.4 0.00 0.56 0.00 80 1014.1
20260510143552 16 348 0.0 12.9 0.00 0.56 0.00 80 1014.0
20260510143052 16 69 3.2 12.9 0.00 0.56 0.00 80 1014.1
20260510142550 16 57 1.6 16.1 0.00 0.56 0.00 82 1014.0
20260510142049 16 42 1.6 16.1 0.00 0.56 0.00 81 1014.0
20260510141548 16 53 1.6 8.0 0.00 0.56 0.00 83 1014.1
20260510141048 15 67 1.6 8.0 0.00 0.56 0.00 85 1014.2
20260510140545 15 39 1.6 6.4 0.00 0.56 0.00 86 1014.1
20260510140043 15 169 1.6 8.0 0.00 0.56 0.00 88 1014.1
20260510135542 14 120 1.6 8.0 0.00 0.58 0.00 88 1014.2
20260510135044 14 143 0.0 11.3 0.00 0.58 0.00 90 1014.1
20260510134542 13 133 3.2 9.7 0.00 0.58 0.00 91 1014.3
20260510134038 13 184 1.6 8.0 0.00 0.58 0.00 93 1014.2
20260510133538 12 169 3.2 8.0 0.00 0.58 0.00 93 1014.2
20260510133036 12 144 1.6 4.8 0.00 0.58 0.00 95 1014.2
20260510132536 12 152 1.6 4.8 0.00 0.58 0.00 96 1014.2
20260510132032 11 157 1.6 4.8 0.00 0.58 0.00 97 1014.2
20260510131531 11 144 0.0 3.2 0.00 0.58 0.00 97 1014.2
20260510131030 11 144 0.0 3.2 0.00 0.58 0.00 97 1014.3
20260510130528 11 144 0.0 3.2 0.00 0.58 0.00 97 1014.3
20260510130026 11 192 0.0 0.0 0.00 0.58 0.00 98 1014.2
20260510125525 11 192 0.0 0.0 0.00 0.58 0.00 98 1014.3
20260510125025 10 192 0.0 1.6 0.00 0.58 0.00 98 1014.2
20260510124524 10 192 0.0 1.6 0.00 0.58 0.00 97 1014.1
20260510124023 10 192 0.0 1.6 0.00 0.58 0.00 98 1014.0
20260510123523 10 192 0.0 1.6 0.00 0.58 0.00 98 1014.0
20260510123021 10 192 0.0 1.6 0.00 0.58 0.00 98 1014.0
20260510122521 10 192 0.0 1.6 0.00 0.58 0.00 98 1014.0
20260510122020 10 192 0.0 3.2 0.00 0.58 0.00 98 1013.9
20260510121520 10 192 0.0 3.2 0.00 0.58 0.00 98 1013.9
20260510121019 10 192 0.0 1.6 0.00 0.58 0.00 98 1013.9
20260510120522 10 192 0.0 3.2 0.00 0.58 0.00 98 1014.0
20260510120016 10 192 0.0 3.2 0.00 0.58 0.00 98 1014.1
20260510115515 10 192 0.0 3.2 0.00 0.58 0.00 98 1014.0
20260510115015 9 192 0.0 1.6 0.00 0.58 0.00 98 1013.9
20260510114518 9 192 0.0 1.6 0.00 0.58 0.00 98 1013.9
20260510114015 9 192 0.0 4.8 0.00 0.58 0.00 98 1013.9
20260510113513 9 192 0.0 4.8 0.00 0.58 0.00 98 1013.9
20260510113017 9 192 0.0 1.6 0.00 0.58 0.00 98 1013.8
20260510112513 9 192 0.0 1.6 0.00 0.58 0.00 98 1013.6
20260510112012 9 192 0.0 4.8 0.00 0.58 0.00 98 1013.6
20260510111511 9 192 0.0 4.8 0.00 0.58 0.00 98 1013.8
20260510111009 9 192 0.0 1.6 0.00 0.58 0.00 98 1013.7
20260510110509 9 192 0.0 4.8 0.00 0.58 0.00 98 1013.6
20260510110014 9 192 0.0 6.4 0.00 0.58 0.00 98 1013.5
20260510105508 9 182 0.0 6.4 0.00 0.66 0.00 98 1013.6
20260510105009 9 128 0.0 6.4 0.00 0.66 0.00 98 1013.6
20260510104506 9 136 1.6 3.2 0.00 0.66 0.00 98 1013.5
20260510104005 9 136 0.0 3.2 0.00 0.66 0.00 98 1013.4
20260510103504 9 136 0.0 6.4 0.00 0.66 0.00 98 1013.5
20260510103004 9 136 1.6 8.0 0.00 0.66 0.00 98 1013.6
20260510102503 9 136 1.6 8.0 0.00 0.66 0.00 97 1013.4
20260510102002 9 102 0.0 4.8 0.00 0.66 0.00 97 1013.2
20260510101502 9 102 1.6 4.8 0.00 0.66 0.00 97 1013.0
20260510101002 9 147 1.6 6.4 0.00 0.66 0.00 97 1013.0
20260510100501 9 182 0.0 6.4 0.00 0.66 0.00 97 1013.1
20260510100001 9 142 1.6 8.0 0.00 0.66 0.00 97 1013.0
20260510095501 9 142 3.2 8.0 0.00 0.71 0.00 98 1012.9
20260510095001 9 128 0.0 9.7 0.00 0.71 0.00 98 1012.9
20260510094600 9 140 1.6 6.4 0.00 0.71 0.00 98 1012.9
20260510094501 9 140 3.2 6.4 0.00 0.71 0.00 98 1012.9
20260510094100 9 117 1.6 9.7 0.00 0.71 0.00 98 1012.6
20260510093600 9 117 3.2 9.7 0.00 0.71 0.00 98 1012.6
20260510093100 9 124 1.6 4.8 0.00 0.71 0.00 98 1012.6
20260510092600 9 124 1.6 9.7 0.00 0.71 0.00 98 1012.5
20260510092058 9 127 1.6 9.7 0.00 0.71 0.00 98 1012.6
20260510091558 9 134 0.0 4.8 0.00 0.71 0.00 98 1012.7
20260510091057 9 134 0.0 4.8 0.00 0.71 0.00 98 1012.8
20260510090557 9 150 1.6 4.8 0.00 0.71 0.00 98 1012.9
20260510090057 9 120 1.6 6.4 0.00 0.71 0.00 98 1012.8
20260510085556 9 139 1.6 6.4 0.00 0.89 0.00 98 1013.0
20260510085058 9 153 0.0 8.0 0.00 0.89 0.00 98 1012.9
20260510084610 9 153 0.0 8.0 0.00 0.89 0.00 98 1012.9
20260510084057 9 119 1.6 3.2 0.00 0.89 0.00 98 1013.0
20260510083559 9 119 0.0 6.4 0.00 0.89 0.00 98 1013.2
20260510083056 9 191 1.6 6.4 0.00 0.89 0.00 98 1013.3
20260510082555 9 149 3.2 6.4 0.00 0.89 0.00 97 1013.2
20260510082056 9 173 3.2 6.4 0.00 0.89 0.00 97 1013.2
20260510081602 9 133 1.6 11.3 0.00 0.89 0.00 97 1013.2
20260510081056 9 140 4.8 9.7 0.00 0.89 0.00 97 1013.3
20260510080553 9 228 3.2 6.4 0.00 0.89 0.00 97 1013.2
20260510075552 9 168 0.0 8.0 0.00 0.89 0.00 97 1013.2
20260510075052 9 137 0.0 4.8 0.00 0.89 0.00 97 1013.2
20260510074554 9 188 0.0 8.0 0.00 0.89 0.00 97 1013.2
20260510074054 9 167 0.0 6.4 0.00 0.89 0.00 97 1013.4
20260510073551 9 70 0.0 4.8 0.00 0.89 0.00 97 1013.3
20260510073053 9 130 0.0 6.4 0.00 0.89 0.00 97 1013.2
20260510072550 9 130 1.6 6.4 0.00 0.89 0.00 97 1013.2
20260510072050 9 135 1.6 4.8 0.00 0.89 0.00 97 1013.1
20260510071550 9 135 0.0 3.2 0.00 0.89 0.00 97 1012.9
20260510071047 9 132 0.0 8.0 0.00 0.89 0.00 97 1012.9
20260510070547 9 155 1.6 8.0 0.00 0.89 0.00 97 1013.0
20260510070051 9 114 0.0 6.4 0.00 0.89 0.00 97 1013.0
20260510065547 8 127 0.0 8.0 0.00 0.89 0.00 97 1013.0
20260510065046 8 126 1.6 8.0 0.00 0.89 0.00 97 1013.0
20260510064548 8 149 0.0 4.8 0.00 0.89 0.00 97 1013.0
20260510064045 8 174 0.0 3.2 0.00 0.89 0.00 97 1013.1
20260510063545 8 174 0.0 3.2 0.00 0.89 0.00 97 1013.1
20260510063045 8 174 0.0 4.8 0.00 0.89 0.00 97 1013.2
20260510062544 8 174 1.6 4.8 0.00 0.89 0.00 97 1013.0
20260510062043 8 174 1.6 4.8 0.00 0.89 0.00 97 1013.0
20260510061543 8 174 0.0 3.2 0.00 0.89 0.00 97 1013.1
20260510061043 9 174 0.0 3.2 0.00 0.89 0.00 97 1013.0
20260510060542 9 174 0.0 6.4 0.00 0.89 0.00 97 1013.0
20260510060047 9 174 1.6 6.4 0.00 0.89 0.00 97 1012.9
20260510055543 9 140 0.0 1.6 0.00 0.89 0.00 97 1012.8
20260510055041 8 140 0.0 4.8 0.00 0.89 0.00 97 1012.8
20260510054541 8 140 1.6 3.2 0.00 0.89 0.00 97 1012.8
20260510054040 8 140 0.0 4.8 0.00 0.89 0.00 97 1012.8
20260510053540 8 140 0.0 4.8 0.00 0.89 0.00 97 1012.9
20260510053040 8 140 1.6 4.8 0.00 0.89 0.00 97 1013.0
20260510052541 9 142 1.6 4.8 0.00 0.89 0.00 97 1012.9
20260510052038 9 130 1.6 4.8 0.00 0.89 0.00 97 1012.9
20260510051538 9 144 1.6 3.2 0.00 0.89 0.00 97 1012.9
20260510051037 9 144 0.0 3.2 0.00 0.89 0.00 97 1013.0
20260510050539 9 144 0.0 3.2 0.00 0.89 0.00 97 1013.0
20260510050037 9 144 0.0 4.8 0.00 0.89 0.00 97 1013.0
20260510045536 9 144 0.0 4.8 0.00 0.89 0.00 97 1013.1
20260510045035 9 144 0.0 3.2 0.00 0.89 0.00 97 1013.0
20260510044536 9 144 0.0 3.2 0.00 0.89 0.00 97 1013.2
20260510044035 9 144 0.0 3.2 0.00 0.89 0.00 97 1013.1
20260510043535 9 144 0.0 3.2 0.00 0.89 0.00 97 1013.1
20260510043035 9 144 0.0 3.2 0.00 0.89 0.00 97 1013.1
20260510042535 9 144 1.6 4.8 0.00 0.89 0.00 97 1013.2
20260510042036 9 144 0.0 3.2 0.00 0.89 0.00 97 1013.0
20260510041532 9 144 0.0 1.6 0.00 0.89 0.00 97 1012.9
20260510041032 9 144 0.0 1.6 0.00 0.89 0.00 97 1012.9
20260510040530 9 144 0.0 1.6 0.00 0.89 0.00 97 1012.9
20260510040029 9 144 0.0 1.6 0.00 0.89 0.00 97 1012.9
20260510035529 9 144 0.0 1.6 0.00 0.89 0.89 97 1013.0
20260510035029 9 144 0.0 3.2 0.00 0.89 0.89 97 1013.1
20260510034529 9 144 0.0 3.2 0.00 0.89 0.89 97 1013.1
20260510034029 9 144 0.0 3.2 0.00 0.89 0.89 97 1013.2
20260510033532 9 144 0.0 8.0 0.00 0.89 0.89 97 1013.2
20260510033042 9 144 3.2 8.0 0.00 0.89 0.89 97 1013.2
20260510032529 9 119 0.0 3.2 0.00 0.89 0.89 97 1013.2
20260510032029 9 119 0.0 3.2 0.00 0.89 0.89 97 1013.3
20260510031531 9 119 0.0 4.8 0.00 0.89 0.89 97 1013.1
20260510031029 9 119 0.0 6.4 0.00 0.89 0.89 97 1013.1
20260510030528 10 119 0.0 6.4 0.00 0.89 0.89 97 1013.2
20260510030028 10 115 0.0 3.2 0.00 0.89 0.89 97 1013.4
20260510025529 10 115 0.0 4.8 0.00 0.89 0.89 97 1013.4
20260510025027 10 115 0.0 4.8 0.00 0.89 0.89 97 1013.4
20260510024527 10 26 0.0 3.2 0.00 0.89 0.89 97 1013.3
20260510024026 10 26 0.0 3.2 0.00 0.89 0.89 97 1013.3
20260510023528 10 26 0.0 6.4 0.00 0.89 0.89 97 1013.2
20260510023026 10 94 1.6 6.4 0.00 0.89 0.89 97 1013.2
20260510022526 10 178 0.0 3.2 0.00 0.89 0.89 97 1013.1
20260510022026 10 178 0.0 1.6 0.00 0.89 0.89 97 1013.1
20260510021606 10 178 0.0 3.2 0.00 0.89 0.89 97 1013.1
20260510021024 10 178 0.0 4.8 0.00 0.89 0.89 97 1013.1
20260510020524 10 178 0.0 6.4 0.00 0.89 0.89 97 1013.1
20260510020025 10 121 0.0 1.6 0.00 0.89 0.89 97 1013.1
20260510015524 10 121 0.0 3.2 0.00 0.89 0.89 97 1013.1
20260510015023 10 121 0.0 3.2 0.00 0.89 0.89 97 1013.2
20260510014533 10 121 0.0 6.4 0.00 0.89 0.89 97 1013.3
20260510014023 10 121 3.2 6.4 0.00 0.89 0.89 97 1013.3
20260510013526 10 171 0.0 4.8 0.00 0.89 0.89 97 1013.4
20260510013023 10 171 0.0 4.8 0.00 0.89 0.89 97 1013.4
20260510012522 10 127 0.0 3.2 0.00 0.89 0.89 97 1013.4
20260510012023 10 127 0.0 3.2 0.00 0.89 0.89 97 1013.3
20260510011524 10 127 0.0 4.8 0.00 0.89 0.89 97 1013.4
20260510011021 10 127 1.6 6.4 0.00 0.89 0.89 97 1013.4
20260510010522 10 129 0.0 6.4 0.00 0.89 0.89 97 1013.2
20260510010032 10 169 0.0 6.4 0.00 0.89 0.89 97 1013.1
20260510005522 10 64 0.0 4.8 0.00 0.89 0.89 97 1013.1
20260510005022 10 62 0.0 4.8 0.00 0.89 0.89 97 1012.9
20260510004522 10 75 0.0 3.2 0.00 0.89 0.89 97 1012.8
20260510004121 10 96 0.0 4.8 0.00 0.89 0.89 97 1012.7
20260510003519 10 42 0.0 8.0 0.00 0.89 0.89 97 1012.6
20260510003023 10 338 1.6 8.0 0.00 0.89 0.89 97 1012.5
20260510002519 10 68 0.0 3.2 0.00 0.89 0.89 97 1012.4
20260510002019 10 68 0.0 6.4 0.00 0.89 0.89 97 1012.5
20260510001519 10 68 0.0 6.4 0.00 0.89 0.89 97 1012.5
20260510001018 10 137 0.0 11.3 0.00 0.89 0.89 97 1012.5
20260510000518 10 137 0.0 11.3 0.00 0.89 0.89 97 1012.5
20260510000018 10 112 0.0 4.8 0.00 0.89 0.89 97 1012.5
20260509235519 10 112 0.0 4.8 0.00 0.89 0.89 97 1012.4
20260509235017 10 72 1.6 4.8 0.00 0.89 0.89 97 1012.4
20260509234521 10 150 0.0 8.0 0.00 0.89 0.89 97 1012.4
20260509234017 10 134 1.6 8.0 0.00 0.89 0.89 97 1012.3
20260509233517 10 76 0.0 6.4 0.00 0.89 0.89 97 1012.3
20260509233016 10 110 0.0 9.7 0.00 0.89 0.89 97 1012.3
20260509232515 10 68 0.0 9.7 0.00 0.89 0.89 97 1012.3
20260509232016 10 121 1.6 8.0 0.00 0.89 0.89 97 1012.3
20260509231515 10 142 0.0 8.0 0.00 0.89 0.89 96 1012.4
20260509231015 10 36 0.0 4.8 0.00 0.89 0.89 96 1012.4
20260509230513 10 96 0.0 4.8 0.00 0.89 0.89 96 1012.4
20260509230023 10 84 0.0 6.4 0.00 0.89 0.89 96 1012.5
20260509225514 10 89 0.0 6.4 0.00 0.89 0.89 96 1012.4
20260509225012 10 29 0.0 6.4 0.00 0.89 0.89 97 1012.6
20260509224514 10 101 1.6 6.4 0.03 0.89 0.89 96 1012.6
20260509224014 10 118 0.0 8.0 0.05 0.89 0.89 96 1012.6
20260509223513 10 158 3.2 16.1 0.05 0.89 0.89 96 1012.6
20260509223013 10 64 1.6 14.5 0.05 0.89 0.89 96 1012.4
20260509222512 10 127 1.6 4.8 0.08 0.89 0.89 96 1012.5
20260509222011 10 244 0.0 6.4 0.10 0.89 0.89 96 1012.6
20260509221511 10 125 1.6 16.1 0.10 0.89 0.89 96 1012.6
20260509221012 10 118 0.0 16.1 0.13 0.89 0.89 96 1012.7
20260509220509 10 128 0.0 6.4 0.13 0.89 0.89 96 1012.6
20260509220009 10 127 0.0 4.8 0.13 0.89 0.89 96 1012.6
20260509215509 10 126 1.6 9.7 0.15 0.89 0.89 95 1012.8
20260509215009 10 126 1.6 9.7 0.15 0.89 0.89 95 1012.8
20260509214509 10 142 3.2 9.7 0.13 0.86 0.86 95 1013.0
20260509214008 10 163 1.6 12.9 0.10 0.84 0.84 95 1012.9
20260509213509 10 106 3.2 12.9 0.10 0.84 0.84 95 1012.9
20260509213010 10 128 1.6 8.0 0.10 0.84 0.84 95 1012.9
20260509212508 10 184 1.6 11.3 0.08 0.81 0.81 95 1012.7
20260509212009 10 177 4.8 11.3 0.08 0.79 0.79 95 1012.8
20260509211508 10 175 1.6 12.9 0.08 0.79 0.79 95 1012.9
20260509211008 10 155 1.6 12.9 0.08 0.76 0.76 95 1012.9
20260509210505 10 195 3.2 12.9 0.08 0.76 0.76 95 1012.9
20260509210007 10 147 4.8 9.7 0.10 0.76 0.76 95 1012.9
20260509205506 10 163 1.6 8.0 0.10 0.71 0.71 95 1012.9
20260509205005 10 194 1.6 8.0 0.13 0.71 0.71 95 1012.9
20260509204504 10 164 1.6 6.4 0.15 0.71 0.71 95 1013.1
20260509204004 10 167 3.2 11.3 0.15 0.71 0.71 95 1013.2
20260509203503 10 142 1.6 11.3 0.18 0.71 0.71 95 1013.2